Weather History for KWST - June, 2013

Change the Weather History Date:

Sunday, June 30, 2013

  Actual Average (KGON) Record (KGON)
Temperature  
Mean Temperature 70 °F -  
Max Temperature 73 °F 77 °F 95 °F (1964)
Min Temperature 66 °F 60 °F 49 °F (1988)
Cooling Degree Days 4    
Growing Degree Days 20 (Base 50)    
Moisture  
Dew Point 69 °F    
Average Humidity 97    
Maximum Humidity 100    
Minimum Humidity 76    
Precipitation  
Precipitation 0.42 in - - ()
Sea Level Pressure  
Sea Level Pressure 29.86 in    
Wind  
Wind Speed 6 mph (South)    
Max Wind Speed 12 mph    
Max Gust Speed 21 mph    
Visibility 3 miles    
Events Fog , Rain    
Averages and records for this station are not official NWS values.
T = Trace of Precipitation, MM = Missing Value Source: NWS Daily Summary

Daily Weather History Graph

Daily Weather History Graph

Search for Another Location

Airport or City:

Trip Planner

Search our weather history database for the weather conditions in past years. The results will help you decide how hot, cold, wet, or windy it might be!

Date:

Astronomy

Jun. 30, 2013 Rise Set
Actual Time 5:17 AM EDT 8:24 PM EDT
Civil Twilight 4:43 AM EDT 8:58 PM EDT
Nautical Twilight 4:00 AM EDT 9:41 PM EDT
Astronomical Twilight 3:08 AM EDT 10:32 PM EDT
Moon 12:17 AM EDT (6/30) 1:33 PM EDT (6/30)
Length of Visible Light 16h 14m
Length of Day
15h 07m
Last Quarter, 45% of the Moon is Illuminated
Jun 30
Last Quarter
Jul 8
New
Jul 15
First Quarter
Jul 22
Full
Jul 29
Last Quarter

Hourly Weather History & Observations

Time (EDT) Temp. Dew Point Humidity Pressure Visibility Wind Dir Wind Speed Gust Speed Precip Events Conditions
12:06 AM 69.8 °F 69.8 °F 100% 29.75 in 3.0 mi SSW 8.1 mph - N/A   Overcast
12:20 AM 69.8 °F 69.8 °F 100% 29.75 in 2.5 mi SSW 6.9 mph - N/A   Overcast
12:35 AM 69.8 °F 69.8 °F 100% 29.76 in 3.0 mi SSW 5.8 mph - N/A   Overcast
12:45 AM 69.8 °F 69.8 °F 100% 29.76 in 2.0 mi SSW 5.8 mph - N/A   Overcast
12:53 AM 69.1 °F 69.1 °F 100% 29.76 in 2.5 mi SW 5.8 mph - N/A   Overcast
1:02 AM 69.8 °F 69.8 °F 100% 29.76 in 4.0 mi SSW 8.1 mph - N/A   Overcast
1:24 AM 69.8 °F 69.8 °F 100% 29.76 in 4.0 mi South 8.1 mph - N/A   Overcast
1:53 AM 69.1 °F 68.0 °F 96% 29.76 in 4.0 mi South 6.9 mph - N/A   Overcast
2:03 AM 69.8 °F 68.0 °F 94% 29.76 in 4.0 mi South 8.1 mph - N/A   Overcast
2:32 AM 68.0 °F 68.0 °F 100% 29.77 in 2.0 mi South 8.1 mph - N/A   Overcast
2:39 AM 68.0 °F 68.0 °F 100% 29.77 in 1.2 mi South 8.1 mph - N/A   Overcast
2:53 AM 68.0 °F 68.0 °F 100% 29.77 in 1.5 mi South 8.1 mph - N/A   Overcast
3:24 AM 68.0 °F 68.0 °F 100% 29.76 in 1.0 mi South 5.8 mph - N/A   Mist
3:39 AM 68.0 °F 68.0 °F 100% 29.76 in 0.8 mi South 4.6 mph - N/A   Mist
3:53 AM 68.0 °F 68.0 °F 100% 29.76 in 1.0 mi South 4.6 mph - N/A   Mist
4:32 AM 68.0 °F 68.0 °F 100% 29.77 in 3.0 mi South 3.5 mph - N/A   Overcast
4:50 AM 68.0 °F 68.0 °F 100% 29.78 in 2.0 mi South 5.8 mph - N/A   Overcast
4:53 AM 68.0 °F 68.0 °F 100% 29.78 in 1.8 mi South 5.8 mph - N/A   Overcast
5:00 AM 68.0 °F 68.0 °F 100% 29.78 in 2.0 mi SSE 5.8 mph - N/A   Overcast
5:13 AM 68.0 °F 66.2 °F 94% 29.79 in 1.5 mi SSE 5.8 mph - N/A   Overcast
5:53 AM 66.9 °F 66.9 °F 100% 29.80 in 1.2 mi SSE 3.5 mph - N/A   Overcast
6:20 AM 68.0 °F 66.2 °F 94% 29.81 in 0.8 mi SSE 3.5 mph - N/A   Overcast
6:39 AM 68.0 °F 68.0 °F 100% 29.82 in 1.0 mi Calm Calm - N/A   Overcast
6:49 AM 69.8 °F 68.0 °F 94% 29.83 in 0.8 mi SSE 3.5 mph - N/A   Overcast
6:53 AM 69.1 °F 69.1 °F 100% 29.83 in 0.5 mi SSE 4.6 mph - N/A Fog Fog
7:10 AM 66.2 °F 66.2 °F 100% 29.84 in 0.2 mi SSE 6.9 mph - N/A Fog Fog
7:53 AM 68.0 °F 68.0 °F 100% 29.86 in 0.5 mi South 4.6 mph - N/A Fog Fog
8:46 AM 69.8 °F 69.8 °F 100% 29.86 in 1.0 mi South 4.6 mph - N/A   Overcast
8:53 AM 69.1 °F 69.1 °F 100% 29.86 in 0.8 mi South 4.6 mph - N/A   Overcast
9:32 AM 69.8 °F 69.8 °F 100% 29.87 in 0.2 mi South 4.6 mph - N/A Fog Fog
9:50 AM 69.8 °F 69.8 °F 100% 29.86 in 0.5 mi South 4.6 mph - N/A Fog Fog
9:53 AM 70.0 °F 70.0 °F 100% 29.86 in 0.5 mi South 4.6 mph - N/A Fog Fog
10:53 AM 69.1 °F 68.0 °F 96% 29.88 in 0.5 mi South 5.8 mph - N/A Fog Fog
11:01 AM 69.8 °F 69.8 °F 100% 29.88 in 0.2 mi South 5.8 mph - N/A Fog Fog
11:37 AM 68.0 °F 68.0 °F 100% 29.89 in 0.5 mi South 6.9 mph - N/A Fog Fog
11:53 AM 70.0 °F 69.1 °F 97% 29.88 in 0.8 mi SSW 4.6 mph - N/A   Overcast
12:03 PM 69.8 °F 69.8 °F 100% 29.89 in 1.0 mi South 4.6 mph - N/A   Overcast
12:33 PM 71.6 °F 69.8 °F 94% 29.89 in 3.0 mi SSW 8.1 mph - N/A   Overcast
12:53 PM 72.0 °F 70.0 °F 93% 29.89 in 3.0 mi SSW 6.9 mph - N/A   Overcast
1:10 PM 73.4 °F 69.8 °F 88% 29.89 in 6.0 mi SSW 10.4 mph - N/A   Overcast
1:20 PM 73.4 °F 68.0 °F 83% 29.89 in 8.0 mi South 10.4 mph - N/A   Overcast
1:49 PM 73.4 °F 66.2 °F 78% 29.90 in 10.0 mi SSW 8.1 mph - N/A   Overcast
1:53 PM 73.9 °F 66.0 °F 76% 29.90 in 10.0 mi SSW 10.4 mph - N/A   Overcast
2:53 PM 72.0 °F 66.0 °F 81% 29.91 in 10.0 mi South 6.9 mph - N/A   Overcast
3:53 PM 72.0 °F 66.9 °F 84% 29.91 in 10.0 mi South 11.5 mph 17.3 mph N/A   Mostly Cloudy
4:51 PM 71.6 °F 68.0 °F 88% 29.91 in 10.0 mi South 6.9 mph - N/A   Overcast
4:53 PM 73.0 °F 68.0 °F 84% 29.91 in 10.0 mi SW 8.1 mph - N/A   Overcast
5:10 PM 71.6 °F 68.0 °F 88% 29.92 in 10.0 mi South 6.9 mph - N/A   Overcast
5:53 PM 70.0 °F 68.0 °F 93% 29.91 in 8.0 mi South 5.8 mph - N/A   Overcast
6:53 PM 70.0 °F 68.0 °F 93% 29.93 in 6.0 mi South 6.9 mph - N/A   Overcast
7:13 PM 69.8 °F 68.0 °F 94% 29.94 in 6.0 mi South 4.6 mph - N/A   Overcast
7:38 PM 69.8 °F 69.8 °F 100% 29.93 in 1.8 mi South 4.6 mph - 0.03 in Rain Rain
7:45 PM 69.8 °F 69.8 °F 100% 29.93 in 2.5 mi South 4.6 mph - 0.03 in Rain Light Rain
7:53 PM 69.1 °F 69.1 °F 100% 29.94 in 2.5 mi South 5.8 mph - 0.03 in   Overcast
8:00 PM 69.8 °F 69.8 °F 100% 29.94 in 0.8 mi South 4.6 mph - N/A   Overcast
8:08 PM 69.8 °F 69.8 °F 100% 29.94 in 0.2 mi South 5.8 mph - N/A Fog Fog
8:19 PM 69.8 °F 69.8 °F 100% 29.93 in 1.0 mi South 4.6 mph - 0.02 in Rain Light Rain
8:27 PM 69.8 °F 69.8 °F 100% 29.94 in 3.0 mi South 4.6 mph - 0.03 in Rain Light Rain
8:39 PM 69.8 °F 69.8 °F 100% 29.93 in 2.5 mi SSE 3.5 mph - 0.03 in Rain Light Rain
8:53 PM 69.1 °F 69.1 °F 100% 29.94 in 2.5 mi SSE 4.6 mph - 0.05 in Rain Light Rain
9:06 PM 69.8 °F 69.8 °F 100% 29.94 in 1.8 mi South 4.6 mph - 0.08 in Rain Rain
9:10 PM 69.8 °F 69.8 °F 100% 29.94 in 3.0 mi South 4.6 mph - 0.08 in Rain Light Rain
9:25 PM 69.8 °F 69.8 °F 100% 29.94 in 3.0 mi South 4.6 mph - 0.11 in Rain Rain
9:30 PM 69.8 °F 69.8 °F 100% 29.94 in 1.8 mi South 4.6 mph - 0.18 in Rain Heavy Rain
9:42 PM 69.8 °F 69.8 °F 100% 29.94 in 2.5 mi South 8.1 mph - 0.25 in Rain Heavy Rain
9:53 PM 69.1 °F 68.0 °F 96% 29.95 in 1.8 mi South 9.2 mph - 0.32 in Rain Heavy Rain
10:02 PM 68.0 °F 68.0 °F 100% 29.95 in 3.0 mi South 8.1 mph - 0.02 in Rain Light Rain
10:53 PM 69.1 °F 68.0 °F 96% 29.95 in 6.0 mi SSW 11.5 mph 20.7 mph 0.02 in   Overcast
11:53 PM 70.0 °F 69.1 °F 97% 29.97 in 6.0 mi SSW 9.2 mph - N/A   Overcast